Time,TemperatureF,DewpointF,PressureIn,WindDirection,WindDirectionDegrees,WindSpeedMPH,WindSpeedGustMPH,Humidity,HourlyPrecipIn,Conditions,Clouds,dailyrainin,SoftwareType,DateUTC
2013-02-12 00:01:00,36.0,28.0,-100.00,West,264,13.0,21.0,68,0.00,,,-99.99,,2013-02-12 05:01:00,
2013-02-12 00:11:00,34.0,25.0,-100.00,WNW,293,12.0,21.0,67,0.00,,,-99.99,,2013-02-12 05:11:00,
2013-02-12 00:21:00,34.0,25.0,-100.00,West,272,12.0,21.0,66,0.00,,,-99.99,,2013-02-12 05:21:00,
2013-02-12 00:32:00,34.0,25.0,-100.00,West,271,14.0,21.0,66,0.00,,,-99.99,,2013-02-12 05:32:00,
2013-02-12 00:42:00,34.0,25.0,-100.00,WNW,296,12.0,21.0,66,0.00,,,-99.99,,2013-02-12 05:42:00,
2013-02-12 00:52:00,34.0,25.0,-100.00,West,275,14.0,21.0,67,0.00,,,-99.99,,2013-02-12 05:52:00,
2013-02-12 01:02:00,34.0,25.0,-100.00,WSW,241,10.0,21.0,67,0.00,,,-99.99,,2013-02-12 06:02:00,
2013-02-12 01:12:00,34.0,25.0,-100.00,NW,306,11.0,21.0,66,0.00,,,-99.99,,2013-02-12 06:12:00,
2013-02-12 01:22:00,34.0,25.0,-100.00,WSW,251,11.0,21.0,66,0.00,,,-99.99,,2013-02-12 06:22:00,
2013-02-12 01:32:00,34.0,25.0,-100.00,West,275,12.0,21.0,66,0.00,,,-99.99,,2013-02-12 06:32:00,
2013-02-12 01:42:00,34.0,25.0,-100.00,West,264,12.0,21.0,67,0.00,,,-99.99,,2013-02-12 06:42:00,
2013-02-12 01:51:00,33.0,25.0,-100.00,West,279,11.0,21.0,67,0.00,,,-99.99,,2013-02-12 06:51:00,
2013-02-12 02:02:00,34.0,25.0,-100.00,WNW,283,13.0,21.0,68,0.00,,,-99.99,,2013-02-12 07:02:00,
2013-02-12 02:12:00,34.0,27.0,-100.00,West,271,9.0,21.0,69,1.14,,,-99.99,,2013-02-12 07:12:00,
2013-02-12 02:21:00,34.0,27.0,-100.00,WNW,289,14.0,21.0,71,0.00,,,-99.99,,2013-02-12 07:21:00,
2013-02-12 02:32:00,34.0,27.0,-100.00,West,269,12.0,21.0,71,0.00,,,-99.99,,2013-02-12 07:32:00,
2013-02-12 02:42:00,34.0,25.0,-100.00,West,275,9.0,21.0,69,0.00,,,-99.99,,2013-02-12 07:42:00,
2013-02-12 02:51:00,33.0,27.0,-100.00,WSW,252,11.0,21.0,71,0.00,,,-99.99,,2013-02-12 07:51:00,
2013-02-12 03:01:00,34.0,25.0,-100.00,West,262,9.0,21.0,69,0.00,,,-99.99,,2013-02-12 08:01:00,
2013-02-12 03:11:00,34.0,27.0,-100.00,WNW,288,9.0,21.0,71,1.14,,,-99.99,,2013-02-12 08:11:00,
2013-02-12 03:21:00,34.0,27.0,-100.00,WSW,245,9.0,21.0,71,0.00,,,-99.99,,2013-02-12 08:21:00,
2013-02-12 03:32:00,33.0,25.0,-100.00,West,265,10.0,21.0,71,0.00,,,-99.99,,2013-02-12 08:32:00,
2013-02-12 03:42:00,33.0,25.0,-100.00,WNW,300,9.0,21.0,71,0.00,,,-99.99,,2013-02-12 08:42:00,
2013-02-12 03:52:00,33.0,25.0,-100.00,WSW,244,11.0,21.0,71,0.00,,,-99.99,,2013-02-12 08:52:00,
2013-02-12 04:02:00,33.0,25.0,-100.00,West,278,12.0,21.0,71,0.00,,,-99.99,,2013-02-12 09:02:00,
2013-02-12 04:11:00,33.0,25.0,-100.00,West,276,11.0,21.0,71,0.00,,,-99.99,,2013-02-12 09:11:00,
2013-02-12 04:21:00,33.0,25.0,-100.00,West,272,10.0,21.0,71,0.00,,,-99.99,,2013-02-12 09:21:00,
2013-02-12 04:32:00,33.0,25.0,-100.00,West,272,12.0,21.0,71,0.00,,,-99.99,,2013-02-12 09:32:00,
2013-02-12 04:42:00,33.0,27.0,-100.00,West,273,11.0,21.0,72,0.00,,,-99.99,,2013-02-12 09:42:00,
2013-02-12 04:51:00,33.0,25.0,-100.00,West,269,11.0,21.0,71,0.00,,,-99.99,,2013-02-12 09:51:00,
2013-02-12 05:01:00,35.0,28.0,-100.00,WNW,295,9.0,21.0,73,0.00,,,-99.99,,2013-02-12 10:01:00,
2013-02-12 05:11:00,33.0,25.0,-100.00,West,278,13.0,21.0,69,0.00,,,-99.99,,2013-02-12 10:11:00,
2013-02-12 05:21:00,33.0,25.0,-100.00,West,278,11.0,21.0,69,0.00,,,-99.99,,2013-02-12 10:21:00,
2013-02-12 05:32:00,32.0,25.0,-100.00,WSW,238,11.0,21.0,71,0.00,,,-99.99,,2013-02-12 10:32:00,
2013-02-12 05:43:00,33.0,25.0,-100.00,WNW,285,10.0,21.0,71,0.00,,,-99.99,,2013-02-12 10:43:00,
2013-02-12 05:51:00,32.0,25.0,-100.00,WNW,293,8.0,21.0,69,0.00,,,-99.99,,2013-02-12 10:51:00,
2013-02-12 06:01:00,32.0,23.0,-100.00,WSW,258,11.0,21.0,68,0.00,,,-99.99,,2013-02-12 11:01:00,
2013-02-12 06:11:00,32.0,25.0,-100.00,WNW,293,11.0,21.0,69,0.00,,,-99.99,,2013-02-12 11:11:00,
2013-02-12 06:22:00,32.0,25.0,-100.00,West,268,12.0,21.0,69,0.00,,,-99.99,,2013-02-12 11:22:00,
2013-02-12 06:32:00,33.0,25.0,-100.00,West,266,11.0,21.0,71,0.00,,,-99.99,,2013-02-12 11:32:00,
2013-02-12 06:42:00,32.0,25.0,-100.00,West,259,10.0,21.0,71,0.00,,,-99.99,,2013-02-12 11:42:00,
2013-02-12 06:52:00,32.0,25.0,-100.00,West,271,12.0,21.0,71,0.00,,,-99.99,,2013-02-12 11:52:00,
2013-02-12 07:02:00,32.0,25.0,-100.00,WNW,288,11.0,21.0,71,0.00,,,-99.99,,2013-02-12 12:02:00,
2013-02-12 07:11:00,32.0,25.0,-100.00,West,266,11.0,21.0,71,0.00,,,-99.99,,2013-02-12 12:11:00,
2013-02-12 07:21:00,32.0,25.0,-100.00,West,265,9.0,21.0,72,0.00,,,-99.99,,2013-02-12 12:21:00,
2013-02-12 07:32:00,32.0,25.0,-100.00,West,280,9.0,21.0,71,0.00,,,-99.99,,2013-02-12 12:32:00,
2013-02-12 07:42:00,32.0,25.0,-100.00,West,261,11.0,21.0,72,0.00,,,-99.99,,2013-02-12 12:42:00,
2013-02-12 07:52:00,32.0,25.0,-100.00,WSW,256,6.0,21.0,72,0.00,,,-99.99,,2013-02-12 12:52:00,
2013-02-12 08:02:00,32.0,25.0,-100.00,WSW,258,11.0,21.0,72,0.00,,,-99.99,,2013-02-12 13:02:00,
2013-02-12 08:11:00,32.0,25.0,-100.00,WNW,285,12.0,21.0,73,0.00,,,-99.99,,2013-02-12 13:11:00,
2013-02-12 08:22:00,32.0,25.0,-100.00,NW,314,9.0,21.0,73,0.00,,,-99.99,,2013-02-12 13:22:00,
2013-02-12 08:32:00,32.0,25.0,-100.00,West,273,11.0,21.0,73,0.00,,,-99.99,,2013-02-12 13:32:00,
2013-02-12 08:42:00,32.0,25.0,-100.00,West,271,12.0,21.0,73,0.00,,,-99.99,,2013-02-12 13:42:00,
2013-02-12 08:52:00,32.0,25.0,-100.00,West,273,11.0,21.0,72,0.00,,,-99.99,,2013-02-12 13:52:00,
2013-02-12 09:01:00,32.0,25.0,-100.00,West,278,9.0,21.0,72,0.00,,,-99.99,,2013-02-12 14:01:00,
2013-02-12 09:12:00,32.0,25.0,-100.00,West,279,11.0,21.0,71,0.00,,,-99.99,,2013-02-12 14:12:00,
2013-02-12 09:22:00,34.0,27.0,-100.00,West,262,9.0,21.0,72,0.00,,,-99.99,,2013-02-12 14:22:00,
2013-02-12 09:32:00,32.0,27.0,-100.00,WSW,254,9.0,21.0,75,1.14,,,-99.99,,2013-02-12 14:32:00,
2013-02-12 09:42:00,32.0,27.0,-100.00,West,268,9.0,21.0,75,0.00,,,-99.99,,2013-02-12 14:42:00,
2013-02-12 09:52:00,34.0,28.0,-100.00,West,271,8.0,21.0,76,0.00,,,-99.99,,2013-02-12 14:52:00,
2013-02-12 10:02:00,34.0,28.0,-100.00,West,269,9.0,21.0,76,0.00,,,-99.99,,2013-02-12 15:02:00,
2013-02-12 10:11:00,34.0,28.0,-100.00,West,280,11.0,21.0,76,0.00,,,-99.99,,2013-02-12 15:11:00,
2013-02-12 10:21:00,34.0,28.0,-100.00,WSW,247,9.0,21.0,75,0.00,,,-99.99,,2013-02-12 15:21:00,
2013-02-12 10:32:00,32.0,27.0,-100.00,SW,225,9.0,21.0,75,0.00,,,-99.99,,2013-02-12 15:32:00,
2013-02-12 10:42:00,32.0,25.0,-100.00,WNW,295,8.0,21.0,73,0.00,,,-99.99,,2013-02-12 15:42:00,
2013-02-12 10:52:00,32.0,25.0,-100.00,WSW,245,7.0,21.0,73,0.00,,,-99.99,,2013-02-12 15:52:00,
2013-02-12 11:01:00,34.0,28.0,-100.00,NW,317,9.0,21.0,75,0.00,,,-99.99,,2013-02-12 16:01:00,
2013-02-12 11:11:00,34.0,28.0,-100.00,West,275,9.0,21.0,76,0.00,,,-99.99,,2013-02-12 16:11:00,
2013-02-12 11:22:00,34.0,28.0,-100.00,West,275,7.0,21.0,76,0.00,,,-99.99,,2013-02-12 16:22:00,
2013-02-12 11:32:00,34.0,28.0,-100.00,WNW,296,7.0,21.0,76,0.00,,,-99.99,,2013-02-12 16:32:00,
2013-02-12 11:42:00,34.0,28.0,-100.00,West,266,6.0,21.0,76,0.00,,,-99.99,,2013-02-12 16:42:00,
2013-02-12 11:52:00,34.0,28.0,-100.00,WNW,295,11.0,21.0,75,0.00,,,-99.99,,2013-02-12 16:52:00,
2013-02-12 12:01:00,34.0,28.0,-100.00,West,272,12.0,21.0,75,0.00,,,-99.99,,2013-02-12 17:01:00,
2013-02-12 12:12:00,32.0,25.0,-100.00,West,273,10.0,21.0,73,0.00,,,-99.99,,2013-02-12 17:12:00,
2013-02-12 12:21:00,32.0,25.0,-100.00,West,276,9.0,21.0,73,0.00,,,-99.99,,2013-02-12 17:21:00,
2013-02-12 12:32:00,32.0,25.0,-100.00,West,278,11.0,21.0,69,0.00,,,-99.99,,2013-02-12 17:32:00,
2013-02-12 12:42:00,34.0,27.0,-100.00,WSW,238,9.0,21.0,71,0.00,,,-99.99,,2013-02-12 17:42:00,
2013-02-12 12:52:00,32.0,25.0,-100.00,West,278,10.0,21.0,71,0.00,,,-99.99,,2013-02-12 17:52:00,
2013-02-12 13:02:00,32.0,25.0,-100.00,WNW,282,9.0,21.0,72,0.00,,,-99.99,,2013-02-12 18:02:00,
2013-02-12 13:12:00,32.0,25.0,-100.00,WNW,282,8.0,21.0,72,0.00,,,-99.99,,2013-02-12 18:12:00,
2013-02-12 13:23:00,32.0,25.0,-100.00,NW,306,7.0,21.0,73,0.00,,,-99.99,,2013-02-12 18:23:00,
2013-02-12 13:32:00,34.0,27.0,-100.00,West,269,6.0,21.0,73,0.00,,,-99.99,,2013-02-12 18:32:00,
2013-02-12 13:42:00,34.0,27.0,-100.00,WSW,237,9.0,21.0,72,0.00,,,-99.99,,2013-02-12 18:42:00,
2013-02-12 13:51:00,34.0,27.0,-100.00,West,275,6.0,21.0,73,0.00,,,-99.99,,2013-02-12 18:51:00,
2013-02-12 14:02:00,32.0,25.0,-100.00,West,265,7.0,21.0,71,0.00,,,-99.99,,2013-02-12 19:02:00,
2013-02-12 14:11:00,33.0,25.0,-100.00,West,276,6.0,21.0,71,0.00,,,-99.99,,2013-02-12 19:11:00,
2013-02-12 14:21:00,33.0,25.0,-100.00,West,265,6.0,21.0,71,0.00,,,-99.99,,2013-02-12 19:21:00,
2013-02-12 14:32:00,33.0,25.0,-100.00,WSW,249,5.0,21.0,71,0.00,,,-99.99,,2013-02-12 19:32:00,
2013-02-12 14:42:00,32.0,25.0,-100.00,West,278,6.0,21.0,71,0.00,,,-99.99,,2013-02-12 19:42:00,
2013-02-12 14:51:00,32.0,25.0,-100.00,WNW,293,7.0,21.0,69,0.00,,,-99.99,,2013-02-12 19:51:00,
2013-02-12 15:01:00,32.0,25.0,-100.00,NW,309,5.0,21.0,69,0.00,,,-99.99,,2013-02-12 20:01:00,
2013-02-12 15:11:00,32.0,25.0,-100.00,WSW,258,4.0,21.0,69,0.00,,,-99.99,,2013-02-12 20:11:00,
2013-02-12 15:21:00,32.0,25.0,-100.00,WNW,285,4.0,21.0,71,0.00,,,-99.99,,2013-02-12 20:21:00,
2013-02-12 15:32:00,32.0,25.0,-100.00,WNW,295,6.0,21.0,71,0.00,,,-99.99,,2013-02-12 20:32:00,
2013-02-12 15:41:00,32.0,25.0,-100.00,West,272,4.0,21.0,72,0.00,,,-99.99,,2013-02-12 20:41:00,
2013-02-12 15:52:00,32.0,25.0,-100.00,WNW,288,5.0,21.0,73,0.00,,,-99.99,,2013-02-12 20:52:00,
2013-02-12 16:02:00,32.0,25.0,-100.00,West,271,6.0,21.0,71,0.00,,,-99.99,,2013-02-12 21:02:00,
2013-02-12 16:11:00,32.0,25.0,-100.00,WNW,297,6.0,21.0,69,0.00,,,-99.99,,2013-02-12 21:11:00,
2013-02-12 16:21:00,32.0,25.0,-100.00,WNW,296,7.0,21.0,69,0.00,,,-99.99,,2013-02-12 21:21:00,
2013-02-12 16:32:00,32.0,25.0,-100.00,West,271,6.0,21.0,69,0.00,,,-99.99,,2013-02-12 21:32:00,
2013-02-12 16:42:00,33.0,25.0,-100.00,West,271,5.0,21.0,69,0.00,,,-99.99,,2013-02-12 21:42:00,
2013-02-12 16:51:00,33.0,23.0,-100.00,WNW,292,4.0,21.0,67,0.00,,,-99.99,,2013-02-12 21:51:00,
2013-02-12 17:01:00,33.0,23.0,-100.00,WNW,292,4.0,21.0,67,0.00,,,-99.99,,2013-02-12 22:01:00,
2013-02-12 17:12:00,33.0,25.0,-100.00,West,279,4.0,21.0,67,0.00,,,-99.99,,2013-02-12 22:12:00,
2013-02-12 17:21:00,33.0,25.0,-100.00,West,276,3.0,21.0,68,0.00,,,-99.99,,2013-02-12 22:21:00,
2013-02-12 17:32:00,35.0,27.0,-100.00,WNW,288,1.0,21.0,71,0.00,,,-99.99,,2013-02-12 22:32:00,
2013-02-12 17:42:00,32.0,25.0,-100.00,WNW,299,2.0,21.0,69,0.00,,,-99.99,,2013-02-12 22:42:00,
2013-02-12 17:51:00,33.0,25.0,-100.00,NW,314,1.0,21.0,71,0.00,,,-99.99,,2013-02-12 22:51:00,
2013-02-12 18:01:00,32.0,25.0,-100.00,West,275,4.0,21.0,72,0.00,,,-99.99,,2013-02-12 23:01:00,
2013-02-12 18:11:00,32.0,25.0,-100.00,North,355,1.0,21.0,71,0.00,,,-99.99,,2013-02-12 23:11:00,
2013-02-12 18:21:00,32.0,25.0,-100.00,West,264,1.0,21.0,71,0.00,,,-99.99,,2013-02-12 23:21:00,
2013-02-12 18:32:00,32.0,25.0,-100.00,ESE,103,0.0,21.0,72,0.00,,,-99.99,,2013-02-12 23:32:00,
2013-02-12 18:42:00,32.0,25.0,-100.00,WSW,258,1.0,21.0,72,0.00,,,-99.99,,2013-02-12 23:42:00,
2013-02-12 18:52:00,32.0,25.0,-100.00,West,275,2.0,21.0,72,0.00,,,-99.99,,2013-02-12 23:52:00,
2013-02-12 19:02:00,31.0,25.0,-100.00,WSW,247,1.0,21.0,72,0.00,,,-99.99,,2013-02-13 00:02:00,
2013-02-12 19:11:00,31.0,25.0,-100.00,WNW,295,0.0,21.0,75,0.00,,,-99.99,,2013-02-13 00:11:00,
2013-02-12 19:21:00,31.0,25.0,-100.00,ESE,117,0.0,21.0,73,0.00,,,-99.99,,2013-02-13 00:21:00,
2013-02-12 19:32:00,31.0,25.0,-100.00,NE,50,0.0,21.0,76,0.00,,,-99.99,,2013-02-13 00:32:00,
2013-02-12 19:42:00,31.0,25.0,-100.00,WSW,254,1.0,21.0,75,0.00,,,-99.99,,2013-02-13 00:42:00,
2013-02-12 19:52:00,30.0,25.0,-100.00,WSW,247,1.0,21.0,75,0.00,,,-99.99,,2013-02-13 00:52:00,
2013-02-12 20:01:00,32.0,27.0,-100.00,SSW,204,1.0,21.0,76,0.00,,,-99.99,,2013-02-13 01:01:00,
2013-02-12 20:11:00,29.0,23.0,-100.00,West,259,0.0,21.0,75,0.00,,,-99.99,,2013-02-13 01:11:00,
2013-02-12 20:21:00,30.0,25.0,-100.00,WSW,251,1.0,21.0,76,0.00,,,-99.99,,2013-02-13 01:21:00,
2013-02-12 20:32:00,29.0,23.0,-100.00,South,184,0.0,21.0,76,0.00,,,-99.99,,2013-02-13 01:32:00,
2013-02-12 20:42:00,29.0,23.0,-100.00,SSW,200,1.0,21.0,76,0.00,,,-99.99,,2013-02-13 01:42:00,
2013-02-12 20:51:00,29.0,25.0,-100.00,SW,227,1.0,21.0,77,0.00,,,-99.99,,2013-02-13 01:51:00,
2013-02-12 21:01:00,28.0,23.0,-100.00,SW,225,1.0,21.0,77,0.00,,,-99.99,,2013-02-13 02:01:00,
2013-02-12 21:11:00,28.0,23.0,-100.00,West,261,1.0,21.0,78,0.00,,,-99.99,,2013-02-13 02:11:00,
2013-02-12 21:22:00,28.0,23.0,-100.00,SW,235,0.0,21.0,78,0.00,,,-99.99,,2013-02-13 02:22:00,
2013-02-12 21:32:00,28.0,23.0,-100.00,SSW,203,1.0,21.0,80,0.00,,,-99.99,,2013-02-13 02:32:00,
2013-02-12 21:42:00,27.0,23.0,-100.00,West,268,0.0,21.0,81,0.00,,,-99.99,,2013-02-13 02:42:00,
2013-02-12 21:52:00,27.0,23.0,-100.00,WSW,258,0.0,21.0,80,0.00,,,-99.99,,2013-02-13 02:52:00,
2013-02-12 22:01:00,27.0,23.0,-100.00,SSW,199,0.0,21.0,82,0.00,,,-99.99,,2013-02-13 03:01:00,
2013-02-12 22:12:00,26.0,23.0,-100.00,SW,225,0.0,21.0,82,0.00,,,-99.99,,2013-02-13 03:12:00,
2013-02-12 22:21:00,26.0,23.0,-100.00,SSW,206,0.0,21.0,84,0.00,,,-99.99,,2013-02-13 03:21:00,
2013-02-12 22:32:00,26.0,23.0,-100.00,WSW,255,1.0,21.0,84,0.00,,,-99.99,,2013-02-13 03:32:00,
2013-02-12 22:42:00,26.0,23.0,-100.00,WSW,255,0.0,21.0,84,0.00,,,-99.99,,2013-02-13 03:42:00,
2013-02-12 22:51:00,26.0,23.0,-100.00,WSW,241,1.0,21.0,85,0.00,,,-99.99,,2013-02-13 03:51:00,
2013-02-12 23:01:00,26.0,23.0,-100.00,SW,224,0.0,21.0,85,0.00,,,-99.99,,2013-02-13 04:01:00,
2013-02-12 23:11:00,29.0,27.0,-100.00,South,176,1.0,21.0,86,0.00,,,-99.99,,2013-02-13 04:11:00,
2013-02-12 23:21:00,28.0,25.0,-100.00,SSE,166,1.0,1.0,85,0.00,,,-99.99,,2013-02-13 04:21:00,
2013-02-12 23:32:00,29.0,27.0,-100.00,WSW,242,0.0,1.0,86,0.00,,,-99.99,,2013-02-13 04:32:00,
2013-02-12 23:42:00,27.0,25.0,-100.00,South,190,1.0,1.0,84,0.00,,,-99.99,,2013-02-13 04:42:00,
2013-02-12 23:51:00,29.0,27.0,-100.00,SW,235,1.0,1.0,85,0.00,,,-99.99,,2013-02-13 04:51:00,